Year,Month,Day,Hour,Minute,Value (Times are PST for temperature in C)
2009,08,05,00,00,15.50
2009,08,05,00,01,15.50
2009,08,05,00,02,15.50
2009,08,05,00,03,15.40
2009,08,05,00,04,15.40
2009,08,05,00,05,15.40
2009,08,05,00,06,15.40
2009,08,05,00,07,15.40
2009,08,05,00,08,15.40
2009,08,05,00,09,15.40
2009,08,05,00,10,15.40
2009,08,05,00,11,15.40
2009,08,05,00,12,15.40
2009,08,05,00,13,15.40
2009,08,05,00,14,15.40
2009,08,05,00,15,15.40
2009,08,05,00,16,15.40
2009,08,05,00,17,15.40
2009,08,05,00,18,15.40
2009,08,05,00,19,15.30
2009,08,05,00,20,15.30
2009,08,05,00,21,15.30
2009,08,05,00,22,15.30
2009,08,05,00,23,15.30
2009,08,05,00,24,15.30
2009,08,05,00,25,15.30
2009,08,05,00,26,15.30
2009,08,05,00,27,15.30
2009,08,05,00,28,15.30
2009,08,05,00,29,15.30
2009,08,05,00,30,15.30
2009,08,05,00,31,15.40
2009,08,05,00,32,15.40
2009,08,05,00,33,15.40
2009,08,05,00,34,15.40
2009,08,05,00,35,15.40
2009,08,05,00,36,15.40
2009,08,05,00,37,15.40
2009,08,05,00,38,15.30
2009,08,05,00,39,15.30
2009,08,05,00,40,15.30
2009,08,05,00,41,15.30
2009,08,05,00,42,15.30
2009,08,05,00,43,15.30
2009,08,05,00,44,15.30
2009,08,05,00,45,15.30
2009,08,05,00,46,15.30
2009,08,05,00,47,15.20
2009,08,05,00,48,15.20
2009,08,05,00,49,15.20
2009,08,05,00,50,15.20
2009,08,05,00,51,15.20
2009,08,05,00,52,15.20
2009,08,05,00,53,15.10
2009,08,05,00,54,15.10
2009,08,05,00,55,15.10
2009,08,05,00,56,15.10
2009,08,05,00,57,15.10
2009,08,05,00,58,15.00
2009,08,05,00,59,15.00
2009,08,05,01,00,15.00
2009,08,05,01,01,15.00
2009,08,05,01,02,15.00
2009,08,05,01,03,15.00
2009,08,05,01,04,15.00
2009,08,05,01,05,15.00
2009,08,05,01,06,15.00
2009,08,05,01,07,15.00
2009,08,05,01,08,15.00
2009,08,05,01,09,15.00
2009,08,05,01,10,15.00
2009,08,05,01,11,15.00
2009,08,05,01,12,15.00
2009,08,05,01,13,15.00
2009,08,05,01,14,15.00
2009,08,05,01,15,15.00
2009,08,05,01,16,15.00
2009,08,05,01,17,15.00
2009,08,05,01,18,15.00
2009,08,05,01,19,15.00
2009,08,05,01,20,15.00
2009,08,05,01,21,15.00
2009,08,05,01,22,15.00
2009,08,05,01,23,15.00
2009,08,05,01,24,15.00
2009,08,05,01,25,15.00
2009,08,05,01,26,15.00
2009,08,05,01,27,15.00
2009,08,05,01,28,14.90
2009,08,05,01,29,14.90
2009,08,05,01,30,14.90
2009,08,05,01,31,14.90
2009,08,05,01,32,14.90
2009,08,05,01,33,14.90
2009,08,05,01,34,14.80
2009,08,05,01,35,14.80
2009,08,05,01,36,14.80
2009,08,05,01,37,14.80
2009,08,05,01,38,14.80
2009,08,05,01,39,14.80
2009,08,05,01,40,14.70
2009,08,05,01,41,14.70
2009,08,05,01,42,14.70
2009,08,05,01,43,14.70
2009,08,05,01,44,14.60
2009,08,05,01,45,14.60
2009,08,05,01,46,14.50
2009,08,05,01,47,14.50
2009,08,05,01,48,14.40
2009,08,05,01,49,14.40
2009,08,05,01,50,14.40
2009,08,05,01,51,14.30
2009,08,05,01,52,14.30
2009,08,05,01,53,14.30
2009,08,05,01,54,14.20
2009,08,05,01,55,14.20
2009,08,05,01,56,14.10
2009,08,05,01,57,14.10
2009,08,05,01,58,14.10
2009,08,05,01,59,14.10
2009,08,05,02,00,14.10
2009,08,05,02,01,14.10
2009,08,05,02,02,14.10
2009,08,05,02,03,14.10
2009,08,05,02,04,14.00
2009,08,05,02,05,14.00
2009,08,05,02,06,14.00
2009,08,05,02,07,14.00
2009,08,05,02,08,14.00
2009,08,05,02,09,14.10
2009,08,05,02,10,14.00
2009,08,05,02,11,14.00
2009,08,05,02,12,14.10
2009,08,05,02,13,14.10
2009,08,05,02,14,14.10
2009,08,05,02,15,14.10
2009,08,05,02,16,14.10
2009,08,05,02,17,14.10
2009,08,05,02,18,14.10
2009,08,05,02,19,14.10
2009,08,05,02,20,14.10
2009,08,05,02,21,14.10
2009,08,05,02,22,14.10
2009,08,05,02,23,14.10
2009,08,05,02,24,14.10
2009,08,05,02,25,14.10
2009,08,05,02,26,14.10
2009,08,05,02,27,14.00
2009,08,05,02,28,14.00
2009,08,05,02,29,14.00
2009,08,05,02,30,14.00
2009,08,05,02,31,14.00
2009,08,05,02,32,14.00
2009,08,05,02,33,14.00
2009,08,05,02,34,13.90
2009,08,05,02,35,13.90
2009,08,05,02,36,13.90
2009,08,05,02,37,13.90
2009,08,05,02,38,14.00
2009,08,05,02,39,14.00
2009,08,05,02,40,14.00
2009,08,05,02,41,14.10
2009,08,05,02,42,14.10
2009,08,05,02,43,14.10
2009,08,05,02,44,14.10
2009,08,05,02,45,14.10
2009,08,05,02,46,14.10
2009,08,05,02,47,14.00
2009,08,05,02,48,14.00
2009,08,05,02,49,14.00
2009,08,05,02,50,14.00
2009,08,05,02,51,14.00
2009,08,05,02,52,13.90
2009,08,05,02,53,13.90
2009,08,05,02,54,13.90
2009,08,05,02,55,13.90
2009,08,05,02,56,13.90
2009,08,05,02,57,14.00
2009,08,05,02,58,14.00
2009,08,05,02,59,14.00
2009,08,05,03,00,14.00
2009,08,05,03,01,14.00
2009,08,05,03,02,14.10
2009,08,05,03,03,14.10
2009,08,05,03,04,14.10
2009,08,05,03,05,14.10
2009,08,05,03,06,14.10
2009,08,05,03,07,14.10
2009,08,05,03,08,14.10
2009,08,05,03,09,14.10
2009,08,05,03,10,14.10
2009,08,05,03,11,14.10
2009,08,05,03,12,14.10
2009,08,05,03,13,14.10
2009,08,05,03,14,14.10
2009,08,05,03,15,14.10
2009,08,05,03,16,14.10
2009,08,05,03,17,14.10
2009,08,05,03,18,14.10
2009,08,05,03,19,14.10
2009,08,05,03,20,14.10
2009,08,05,03,21,14.10
2009,08,05,03,22,14.10
2009,08,05,03,23,14.10
2009,08,05,03,24,14.10
2009,08,05,03,25,14.10
2009,08,05,03,26,14.10
2009,08,05,03,27,14.10
2009,08,05,03,28,14.10
2009,08,05,03,29,14.10
2009,08,05,03,30,14.10
2009,08,05,03,31,14.10
2009,08,05,03,32,14.10
2009,08,05,03,33,14.10
2009,08,05,03,34,14.10
2009,08,05,03,35,14.10
2009,08,05,03,36,14.10
2009,08,05,03,37,14.10
2009,08,05,03,38,14.00
2009,08,05,03,39,14.00
2009,08,05,03,40,14.00
2009,08,05,03,41,14.00
2009,08,05,03,42,14.00
2009,08,05,03,43,13.90
2009,08,05,03,44,13.90
2009,08,05,03,45,13.90
2009,08,05,03,46,13.90
2009,08,05,03,47,13.90
2009,08,05,03,48,13.90
2009,08,05,03,49,13.90
2009,08,05,03,50,13.90
2009,08,05,03,51,13.90
2009,08,05,03,52,13.80
2009,08,05,03,53,13.80
2009,08,05,03,54,13.80
2009,08,05,03,55,13.80
2009,08,05,03,56,13.80
2009,08,05,03,57,13.70
2009,08,05,03,58,13.70
2009,08,05,03,59,13.70
2009,08,05,04,00,13.70
2009,08,05,04,01,13.70
2009,08,05,04,02,13.70
2009,08,05,04,03,13.70
2009,08,05,04,04,13.60
2009,08,05,04,05,13.60
2009,08,05,04,06,13.60
2009,08,05,04,07,13.60
2009,08,05,04,08,13.60
2009,08,05,04,09,13.60
2009,08,05,04,10,13.50
2009,08,05,04,11,13.50
2009,08,05,04,12,13.40
2009,08,05,04,13,13.40
2009,08,05,04,14,13.40
2009,08,05,04,15,13.40
2009,08,05,04,16,13.30
2009,08,05,04,17,13.30
2009,08,05,04,18,13.40
2009,08,05,04,19,13.40
2009,08,05,04,20,13.40
2009,08,05,04,21,13.40
2009,08,05,04,22,13.40
2009,08,05,04,23,13.40
2009,08,05,04,24,13.40
2009,08,05,04,25,13.40
2009,08,05,04,26,13.40
2009,08,05,04,27,13.30
2009,08,05,04,28,13.30
2009,08,05,04,29,13.30
2009,08,05,04,30,13.30
2009,08,05,04,31,13.30
2009,08,05,04,32,13.30
2009,08,05,04,33,13.30
2009,08,05,04,34,13.30
2009,08,05,04,35,13.30
2009,08,05,04,36,13.30
2009,08,05,04,37,13.30
2009,08,05,04,38,13.30
2009,08,05,04,39,13.30
2009,08,05,04,40,13.30
2009,08,05,04,41,13.20
2009,08,05,04,42,13.20
2009,08,05,04,43,13.20
2009,08,05,04,44,13.30
2009,08,05,04,45,13.30
2009,08,05,04,46,13.30
2009,08,05,04,47,13.30
2009,08,05,04,48,13.30
2009,08,05,04,49,13.30
2009,08,05,04,50,13.30
2009,08,05,04,51,13.30
2009,08,05,04,52,13.20
2009,08,05,04,53,13.20
2009,08,05,04,54,13.20
2009,08,05,04,55,13.20
2009,08,05,04,56,13.20
2009,08,05,04,57,13.20
2009,08,05,04,58,13.20
2009,08,05,04,59,13.20
2009,08,05,05,00,13.30
2009,08,05,05,01,13.30
2009,08,05,05,02,13.30
2009,08,05,05,03,13.30
2009,08,05,05,04,13.30
2009,08,05,05,05,13.20
2009,08,05,05,06,13.20
2009,08,05,05,07,13.20
2009,08,05,05,08,13.20
2009,08,05,05,09,13.20
2009,08,05,05,10,13.10
2009,08,05,05,11,13.10
2009,08,05,05,12,13.10
2009,08,05,05,13,13.10
2009,08,05,05,14,13.10
2009,08,05,05,15,13.10
2009,08,05,05,16,13.10
2009,08,05,05,17,13.10
2009,08,05,05,18,13.10
2009,08,05,05,19,13.00
2009,08,05,05,20,13.00
2009,08,05,05,21,13.00
2009,08,05,05,22,13.00
2009,08,05,05,23,13.00
2009,08,05,05,24,13.00
2009,08,05,05,25,13.00
2009,08,05,05,26,13.00
2009,08,05,05,27,13.00
2009,08,05,05,28,13.00
2009,08,05,05,29,12.90
2009,08,05,05,30,12.90
2009,08,05,05,31,12.90
2009,08,05,05,32,12.80
2009,08,05,05,33,12.80
2009,08,05,05,34,12.80
2009,08,05,05,35,12.80
2009,08,05,05,36,12.80
2009,08,05,05,37,12.80
2009,08,05,05,38,12.80
2009,08,05,05,39,12.80
2009,08,05,05,40,12.80
2009,08,05,05,41,12.80
2009,08,05,05,42,12.80
2009,08,05,05,43,12.70
2009,08,05,05,44,12.70
2009,08,05,05,45,12.70
2009,08,05,05,46,12.70
2009,08,05,05,47,12.70
2009,08,05,05,48,12.60
2009,08,05,05,49,12.70
2009,08,05,05,50,12.70
2009,08,05,05,51,12.70
2009,08,05,05,52,12.70
2009,08,05,05,53,12.70
2009,08,05,05,54,12.70
2009,08,05,05,55,12.70
2009,08,05,05,56,12.70
2009,08,05,05,57,12.70
2009,08,05,05,58,12.70
2009,08,05,05,59,12.60
2009,08,05,06,00,12.60
2009,08,05,06,01,12.60
2009,08,05,06,02,12.60
2009,08,05,06,03,12.60
2009,08,05,06,04,12.60
2009,08,05,06,05,12.60
2009,08,05,06,06,12.60
2009,08,05,06,07,12.60
2009,08,05,06,08,12.60
2009,08,05,06,09,12.70
2009,08,05,06,10,12.70
2009,08,05,06,11,12.70
2009,08,05,06,12,12.80
2009,08,05,06,13,12.80
2009,08,05,06,14,12.80
2009,08,05,06,15,12.80
2009,08,05,06,16,12.80
2009,08,05,06,17,12.80
2009,08,05,06,18,12.80
2009,08,05,06,19,12.80
2009,08,05,06,20,12.80
2009,08,05,06,21,12.70
2009,08,05,06,22,12.70
2009,08,05,06,23,12.70
2009,08,05,06,24,12.70
2009,08,05,06,25,12.60
2009,08,05,06,26,12.60
2009,08,05,06,27,12.60
2009,08,05,06,28,12.60
2009,08,05,06,29,12.60
2009,08,05,06,30,12.60
2009,08,05,06,31,12.60
2009,08,05,06,32,12.60
2009,08,05,06,33,12.60
2009,08,05,06,34,12.60
2009,08,05,06,35,12.60
2009,08,05,06,36,12.60
2009,08,05,06,37,12.60
2009,08,05,06,38,12.60
2009,08,05,06,39,12.60
2009,08,05,06,40,12.60
2009,08,05,06,41,12.60
2009,08,05,06,42,12.70
2009,08,05,06,43,12.70
2009,08,05,06,44,12.70
2009,08,05,06,45,12.70
2009,08,05,06,46,12.70
2009,08,05,06,47,12.80
2009,08,05,06,48,12.70
2009,08,05,06,49,12.80
2009,08,05,06,50,12.70
2009,08,05,06,51,12.70
2009,08,05,06,52,12.70
2009,08,05,06,53,12.80
2009,08,05,06,54,12.80
2009,08,05,06,55,12.80
2009,08,05,06,56,12.80
2009,08,05,06,57,12.80
2009,08,05,06,58,12.80
2009,08,05,06,59,12.80
2009,08,05,07,00,12.80
2009,08,05,07,01,12.80
2009,08,05,07,02,12.90
2009,08,05,07,03,12.90
2009,08,05,07,04,12.90
2009,08,05,07,05,13.00
2009,08,05,07,06,13.00
2009,08,05,07,07,13.10
2009,08,05,07,08,13.10
2009,08,05,07,09,13.20
2009,08,05,07,10,13.20
2009,08,05,07,11,13.30
2009,08,05,07,12,13.30
2009,08,05,07,13,13.40
2009,08,05,07,14,13.40
2009,08,05,07,15,13.50
2009,08,05,07,16,13.60
2009,08,05,07,17,13.60
2009,08,05,07,18,13.60
2009,08,05,07,19,13.70
2009,08,05,07,20,13.70
2009,08,05,07,21,13.70
2009,08,05,07,22,13.80
2009,08,05,07,23,13.80
2009,08,05,07,24,13.80
2009,08,05,07,25,13.90
2009,08,05,07,26,13.90
2009,08,05,07,27,14.00
2009,08,05,07,28,14.00
2009,08,05,07,29,14.10
2009,08,05,07,30,14.10
2009,08,05,07,31,14.20
2009,08,05,07,32,14.20
2009,08,05,07,33,14.30
2009,08,05,07,34,14.30
2009,08,05,07,35,14.40
2009,08,05,07,36,14.40
2009,08,05,07,37,14.40
2009,08,05,07,38,14.50
2009,08,05,07,39,14.50
2009,08,05,07,40,14.50
2009,08,05,07,41,14.60
2009,08,05,07,42,14.60
2009,08,05,07,43,14.60
2009,08,05,07,44,14.70
2009,08,05,07,45,14.70
2009,08,05,07,46,14.70
2009,08,05,07,47,14.80
2009,08,05,07,48,14.80
2009,08,05,07,49,14.80
2009,08,05,07,50,14.80
2009,08,05,07,51,14.80
2009,08,05,07,52,14.80
2009,08,05,07,53,14.80
2009,08,05,07,54,14.90
2009,08,05,07,55,14.90
2009,08,05,07,56,15.00
2009,08,05,07,57,15.00
2009,08,05,07,58,15.00
2009,08,05,07,59,15.00
2009,08,05,08,00,15.00
2009,08,05,08,01,15.00
2009,08,05,08,02,15.10
2009,08,05,08,03,15.20
2009,08,05,08,04,15.20
2009,08,05,08,05,15.20
2009,08,05,08,06,15.20
2009,08,05,08,07,15.20
2009,08,05,08,08,15.20
2009,08,05,08,09,15.20
2009,08,05,08,10,15.20
2009,08,05,08,11,15.20
2009,08,05,08,12,15.20
2009,08,05,08,13,15.20
2009,08,05,08,14,15.10
2009,08,05,08,15,15.10
2009,08,05,08,16,15.10
2009,08,05,08,17,15.10
2009,08,05,08,18,15.10
2009,08,05,08,19,15.20
2009,08,05,08,20,15.20
2009,08,05,08,21,15.20
2009,08,05,08,22,15.20
2009,08,05,08,23,15.30
2009,08,05,08,24,15.40
2009,08,05,08,25,15.40
2009,08,05,08,26,15.40
2009,08,05,08,27,15.50
2009,08,05,08,28,15.60
2009,08,05,08,29,15.60
2009,08,05,08,30,15.60
2009,08,05,08,31,15.60
2009,08,05,08,32,15.60
2009,08,05,08,33,15.60
2009,08,05,08,34,15.60
2009,08,05,08,35,15.70
2009,08,05,08,36,15.70
2009,08,05,08,37,15.60
2009,08,05,08,38,15.60
2009,08,05,08,39,15.60
2009,08,05,08,40,15.60
2009,08,05,08,41,15.60
2009,08,05,08,42,15.70
2009,08,05,08,43,15.70
2009,08,05,08,44,15.60
2009,08,05,08,45,15.60
2009,08,05,08,46,15.60
2009,08,05,08,47,15.60
2009,08,05,08,48,15.60
2009,08,05,08,49,15.60
2009,08,05,08,50,15.60
2009,08,05,08,51,15.50
2009,08,05,08,52,15.50
2009,08,05,08,53,15.40
2009,08,05,08,54,15.40
2009,08,05,08,55,15.40
2009,08,05,08,56,15.40
2009,08,05,08,57,15.40
2009,08,05,08,58,15.40
2009,08,05,08,59,15.50
2009,08,05,09,00,15.50
2009,08,05,09,01,15.50
2009,08,05,09,02,15.60
2009,08,05,09,03,15.60
2009,08,05,09,04,15.60
2009,08,05,09,05,15.60
2009,08,05,09,06,15.70
2009,08,05,09,07,15.70
2009,08,05,09,08,15.80
2009,08,05,09,09,15.80
2009,08,05,09,10,15.80
2009,08,05,09,11,15.80
2009,08,05,09,12,15.90
2009,08,05,09,13,15.90
2009,08,05,09,14,16.00
2009,08,05,09,15,16.10
2009,08,05,09,16,16.10
2009,08,05,09,17,16.20
2009,08,05,09,18,16.20
2009,08,05,09,19,16.20
2009,08,05,09,20,16.20
2009,08,05,09,21,16.20
2009,08,05,09,22,16.20
2009,08,05,09,23,16.30
2009,08,05,09,24,16.30
2009,08,05,09,25,16.30
2009,08,05,09,26,16.40
2009,08,05,09,27,16.40
2009,08,05,09,28,16.50
2009,08,05,09,29,16.50
2009,08,05,09,30,16.60
2009,08,05,09,31,16.60
2009,08,05,09,32,16.60
2009,08,05,09,33,16.60
2009,08,05,09,34,16.50
2009,08,05,09,35,16.40
2009,08,05,09,36,16.40
2009,08,05,09,37,16.40
2009,08,05,09,38,16.40
2009,08,05,09,39,16.40
2009,08,05,09,40,16.40
2009,08,05,09,41,16.50
2009,08,05,09,42,16.50
2009,08,05,09,43,16.60
2009,08,05,09,44,16.60
2009,08,05,09,45,16.60
2009,08,05,09,46,16.60
2009,08,05,09,47,16.70
2009,08,05,09,48,16.70
2009,08,05,09,49,16.80
2009,08,05,09,50,16.80
2009,08,05,09,51,16.80
2009,08,05,09,52,16.90
2009,08,05,09,53,16.90
2009,08,05,09,54,16.90
2009,08,05,09,55,16.90
2009,08,05,09,56,16.90
2009,08,05,09,57,17.00
2009,08,05,09,58,17.00
2009,08,05,09,59,17.10
2009,08,05,10,00,17.20
2009,08,05,10,01,17.30
2009,08,05,10,02,17.40
2009,08,05,10,03,17.50
2009,08,05,10,04,17.50
2009,08,05,10,05,17.60
2009,08,05,10,06,17.70
2009,08,05,10,07,17.70
2009,08,05,10,08,17.70
2009,08,05,10,09,17.80
2009,08,05,10,10,17.80
2009,08,05,10,11,17.90
2009,08,05,10,12,17.90
2009,08,05,10,13,18.00
2009,08,05,10,14,18.10
2009,08,05,10,15,18.20
2009,08,05,10,16,18.10
2009,08,05,10,17,18.10
2009,08,05,10,18,18.10
2009,08,05,10,19,18.10
2009,08,05,10,20,18.10
2009,08,05,10,21,18.20
2009,08,05,10,22,18.30
2009,08,05,10,23,18.40
2009,08,05,10,24,18.40
2009,08,05,10,25,18.50
2009,08,05,10,26,18.60
2009,08,05,10,27,18.70
2009,08,05,10,28,18.70
2009,08,05,10,29,18.80
2009,08,05,10,30,18.80
2009,08,05,10,31,18.80
2009,08,05,10,32,18.80
2009,08,05,10,33,18.80
2009,08,05,10,34,18.80
2009,08,05,10,35,18.70
2009,08,05,10,36,18.70
2009,08,05,10,37,18.70
2009,08,05,10,38,18.80
2009,08,05,10,39,18.90
2009,08,05,10,40,19.00
2009,08,05,10,41,19.00
2009,08,05,10,42,19.10
2009,08,05,10,43,19.10
2009,08,05,10,44,19.10
2009,08,05,10,45,19.10
2009,08,05,10,46,19.00
2009,08,05,10,47,18.90
2009,08,05,10,48,18.90
2009,08,05,10,49,18.90
2009,08,05,10,50,18.90
2009,08,05,10,51,18.90
2009,08,05,10,52,18.90
2009,08,05,10,53,18.90
2009,08,05,10,54,18.90
2009,08,05,10,55,18.90
2009,08,05,10,56,18.90
2009,08,05,10,57,19.00
2009,08,05,10,58,18.90
2009,08,05,10,59,18.90
2009,08,05,11,00,18.90
2009,08,05,11,01,18.90
2009,08,05,11,02,19.00
2009,08,05,11,03,19.10
2009,08,05,11,04,19.10
2009,08,05,11,05,19.10
2009,08,05,11,06,19.10
2009,08,05,11,07,19.10
2009,08,05,11,08,19.10
2009,08,05,11,09,19.20
2009,08,05,11,10,19.20
2009,08,05,11,11,19.20
2009,08,05,11,12,19.20
2009,08,05,11,13,19.30
2009,08,05,11,14,19.30
2009,08,05,11,15,19.40
2009,08,05,11,16,19.50
2009,08,05,11,17,19.60
2009,08,05,11,18,19.50
2009,08,05,11,19,19.40
2009,08,05,11,20,19.40
2009,08,05,11,21,19.40
2009,08,05,11,22,19.40
2009,08,05,11,23,19.40
2009,08,05,11,24,19.30
2009,08,05,11,25,19.20
2009,08,05,11,26,19.20
2009,08,05,11,27,19.30
2009,08,05,11,28,19.30
2009,08,05,11,29,19.30
2009,08,05,11,30,19.30
2009,08,05,11,31,19.40
2009,08,05,11,32,19.40
2009,08,05,11,33,19.50
2009,08,05,11,34,19.60
2009,08,05,11,35,19.60
2009,08,05,11,36,19.70
2009,08,05,11,37,19.70
2009,08,05,11,38,19.80
2009,08,05,11,39,19.80
2009,08,05,11,40,19.70
2009,08,05,11,41,19.70
2009,08,05,11,42,19.70
2009,08,05,11,43,19.60
2009,08,05,11,44,19.50
2009,08,05,11,45,19.40
2009,08,05,11,46,19.30
2009,08,05,11,47,19.30
2009,08,05,11,48,19.40
2009,08,05,11,49,19.40
2009,08,05,11,50,19.50
2009,08,05,11,51,19.60
2009,08,05,11,52,19.60
2009,08,05,11,53,19.50
2009,08,05,11,54,19.40
2009,08,05,11,55,19.40
2009,08,05,11,56,19.40
2009,08,05,11,57,19.40
2009,08,05,11,58,19.40
2009,08,05,11,59,19.40
2009,08,05,12,00,19.40
2009,08,05,12,01,19.40
2009,08,05,12,02,19.50
2009,08,05,12,03,19.60
2009,08,05,12,04,19.60
2009,08,05,12,05,19.70
2009,08,05,12,06,19.80
2009,08,05,12,07,19.90
2009,08,05,12,08,20.00
2009,08,05,12,09,19.90
2009,08,05,12,10,19.90
2009,08,05,12,11,19.80
2009,08,05,12,12,19.70
2009,08,05,12,13,19.70
2009,08,05,12,14,19.70
2009,08,05,12,15,19.70
2009,08,05,12,16,19.70
2009,08,05,12,17,19.80
2009,08,05,12,18,19.90
2009,08,05,12,19,19.90
2009,08,05,12,20,19.90
2009,08,05,12,21,20.00
2009,08,05,12,22,20.00
2009,08,05,12,23,20.10
2009,08,05,12,24,20.10
2009,08,05,12,25,20.10
2009,08,05,12,26,20.10
2009,08,05,12,27,20.20
2009,08,05,12,28,20.20
2009,08,05,12,29,20.10
2009,08,05,12,30,20.10
2009,08,05,12,31,20.00
2009,08,05,12,32,19.90
2009,08,05,12,33,20.00
2009,08,05,12,34,20.00
2009,08,05,12,35,20.00
2009,08,05,12,36,20.00
2009,08,05,12,37,19.90
2009,08,05,12,38,19.90
2009,08,05,12,39,19.90
2009,08,05,12,40,19.90
2009,08,05,12,41,19.90
2009,08,05,12,42,20.00
2009,08,05,12,43,20.00
2009,08,05,12,44,20.00
2009,08,05,12,45,20.10
2009,08,05,12,46,20.10
2009,08,05,12,47,20.10
2009,08,05,12,48,20.20
2009,08,05,12,49,20.30
2009,08,05,12,50,20.30
2009,08,05,12,51,20.30
2009,08,05,12,52,20.30
2009,08,05,12,53,20.30
2009,08,05,12,54,20.20
2009,08,05,12,55,20.20
2009,08,05,12,56,20.10
2009,08,05,12,57,20.20
2009,08,05,12,58,20.30
2009,08,05,12,59,20.30
2009,08,05,13,00,20.40
2009,08,05,13,01,20.50
2009,08,05,13,02,20.50
2009,08,05,13,03,20.60
2009,08,05,13,04,20.40
2009,08,05,13,05,20.30
2009,08,05,13,06,20.10
2009,08,05,13,07,20.00
2009,08,05,13,08,19.90
2009,08,05,13,09,19.60
2009,08,05,13,10,19.30
2009,08,05,13,11,19.20
2009,08,05,13,12,19.20
2009,08,05,13,13,19.10
2009,08,05,13,14,19.10
2009,08,05,13,15,19.10
2009,08,05,13,16,19.00
2009,08,05,13,17,19.00
2009,08,05,13,18,18.90
2009,08,05,13,19,18.80
2009,08,05,13,20,18.80
2009,08,05,13,21,18.70
2009,08,05,13,22,18.70
2009,08,05,13,23,18.80
2009,08,05,13,24,18.90
2009,08,05,13,25,19.00
2009,08,05,13,26,19.10
2009,08,05,13,27,19.20
2009,08,05,13,28,19.20
2009,08,05,13,29,19.30
2009,08,05,13,30,19.30
2009,08,05,13,31,19.40
2009,08,05,13,32,19.40
2009,08,05,13,33,19.50
2009,08,05,13,34,19.60
2009,08,05,13,35,19.70
2009,08,05,13,36,19.80
2009,08,05,13,37,19.70
2009,08,05,13,38,19.70
2009,08,05,13,39,19.60
2009,08,05,13,40,19.60
2009,08,05,13,41,19.60
2009,08,05,13,42,19.60
2009,08,05,13,43,19.60
2009,08,05,13,44,19.60
2009,08,05,13,45,19.60
2009,08,05,13,46,19.60
2009,08,05,13,47,19.60
2009,08,05,13,48,19.60
2009,08,05,13,49,19.60
2009,08,05,13,50,19.60
2009,08,05,13,51,19.70
2009,08,05,13,52,19.80
2009,08,05,13,53,19.90
2009,08,05,13,54,19.90
2009,08,05,13,55,20.00
2009,08,05,13,56,20.00
2009,08,05,13,57,19.90
2009,08,05,13,58,19.80
2009,08,05,13,59,19.80
2009,08,05,14,00,19.80
2009,08,05,14,01,19.80
2009,08,05,14,02,19.70
2009,08,05,14,03,19.70
2009,08,05,14,04,19.70
2009,08,05,14,05,19.80
2009,08,05,14,06,19.90
2009,08,05,14,07,19.90
2009,08,05,14,08,20.00
2009,08,05,14,09,20.10
2009,08,05,14,10,20.10
2009,08,05,14,11,20.20
2009,08,05,14,12,20.30
2009,08,05,14,13,20.40
2009,08,05,14,14,20.40
2009,08,05,14,15,20.50
2009,08,05,14,16,20.60
2009,08,05,14,17,20.50
2009,08,05,14,18,20.50
2009,08,05,14,19,20.40
2009,08,05,14,20,20.40
2009,08,05,14,21,20.40
2009,08,05,14,22,20.30
2009,08,05,14,23,20.30
2009,08,05,14,24,20.30
2009,08,05,14,25,20.30
2009,08,05,14,26,20.30
2009,08,05,14,27,20.30
2009,08,05,14,28,20.30
2009,08,05,14,29,20.30
2009,08,05,14,30,20.20
2009,08,05,14,31,20.30
2009,08,05,14,32,20.20
2009,08,05,14,33,20.20
2009,08,05,14,34,20.10
2009,08,05,14,35,20.00
2009,08,05,14,36,19.90
2009,08,05,14,37,19.80
2009,08,05,14,38,19.80
2009,08,05,14,39,19.80
2009,08,05,14,40,19.70
2009,08,05,14,41,19.60
2009,08,05,14,42,19.50
2009,08,05,14,43,19.40
2009,08,05,14,44,19.40
2009,08,05,14,45,19.40
2009,08,05,14,46,19.40
2009,08,05,14,47,19.50
2009,08,05,14,48,19.50
2009,08,05,14,49,19.50
2009,08,05,14,50,19.60
2009,08,05,14,51,19.60
2009,08,05,14,52,19.60
2009,08,05,14,53,19.60
2009,08,05,14,54,19.50
2009,08,05,14,55,19.50
2009,08,05,14,56,19.50
2009,08,05,14,57,19.60
2009,08,05,14,58,19.60
2009,08,05,14,59,19.70
2009,08,05,15,00,19.70
2009,08,05,15,01,19.70
2009,08,05,15,02,19.70
2009,08,05,15,03,19.70
2009,08,05,15,04,19.70
2009,08,05,15,05,19.70
2009,08,05,15,06,19.70
2009,08,05,15,07,19.80
2009,08,05,15,08,19.80
2009,08,05,15,09,19.70
2009,08,05,15,10,19.60
2009,08,05,15,11,19.60
2009,08,05,15,12,19.50
2009,08,05,15,13,19.40
2009,08,05,15,14,19.40
2009,08,05,15,15,19.40
2009,08,05,15,16,19.50
2009,08,05,15,17,19.50
2009,08,05,15,18,19.60
2009,08,05,15,19,19.70
2009,08,05,15,20,19.80
2009,08,05,15,21,19.80
2009,08,05,15,22,19.90
2009,08,05,15,23,20.00
2009,08,05,15,24,19.90
2009,08,05,15,25,19.90
2009,08,05,15,26,19.90
2009,08,05,15,27,19.80
2009,08,05,15,28,19.80
2009,08,05,15,29,19.90
2009,08,05,15,30,20.00
2009,08,05,15,31,20.00
2009,08,05,15,32,20.10
2009,08,05,15,33,20.10
2009,08,05,15,34,20.10
2009,08,05,15,35,20.20
2009,08,05,15,36,20.30
2009,08,05,15,37,20.30
2009,08,05,15,38,20.30
2009,08,05,15,39,20.30
2009,08,05,15,40,20.40
2009,08,05,15,41,20.40
2009,08,05,15,42,20.50
2009,08,05,15,43,20.40
2009,08,05,15,44,20.50
2009,08,05,15,45,20.50
2009,08,05,15,46,20.60
2009,08,05,15,47,20.70
2009,08,05,15,48,20.70
2009,08,05,15,49,20.70
2009,08,05,15,50,20.70
2009,08,05,15,51,20.70
2009,08,05,15,52,20.80
2009,08,05,15,53,20.80
2009,08,05,15,54,20.80
2009,08,05,15,55,20.70
2009,08,05,15,56,20.70
2009,08,05,15,57,20.60
2009,08,05,15,58,20.50
2009,08,05,15,59,20.40
2009,08,05,16,00,20.50
2009,08,05,16,01,20.50
2009,08,05,16,02,20.50
2009,08,05,16,03,20.40
2009,08,05,16,04,20.40
2009,08,05,16,05,20.40
2009,08,05,16,06,20.40
2009,08,05,16,07,20.40
2009,08,05,16,08,20.40
2009,08,05,16,09,20.40
2009,08,05,16,10,20.40
2009,08,05,16,11,20.50
2009,08,05,16,12,20.60
2009,08,05,16,13,20.60
2009,08,05,16,14,20.60
2009,08,05,16,15,20.50
2009,08,05,16,16,20.40
2009,08,05,16,17,20.30
2009,08,05,16,18,20.30
2009,08,05,16,19,20.40
2009,08,05,16,20,20.40
2009,08,05,16,21,20.30
2009,08,05,16,22,20.40
2009,08,05,16,23,20.40
2009,08,05,16,24,20.30
2009,08,05,16,25,20.40
2009,08,05,16,26,20.40
2009,08,05,16,27,20.50
2009,08,05,16,28,20.50
2009,08,05,16,29,20.50
2009,08,05,16,30,20.50
2009,08,05,16,31,20.50
2009,08,05,16,32,20.50
2009,08,05,16,33,20.40
2009,08,05,16,34,20.50
2009,08,05,16,35,20.60
2009,08,05,16,36,20.60
2009,08,05,16,37,20.50
2009,08,05,16,38,20.50
2009,08,05,16,39,20.50
2009,08,05,16,40,20.60
2009,08,05,16,41,20.70
2009,08,05,16,42,20.80
2009,08,05,16,43,20.90
2009,08,05,16,44,21.00
2009,08,05,16,45,21.10
2009,08,05,16,46,21.20
2009,08,05,16,47,21.20
2009,08,05,16,48,21.30
2009,08,05,16,49,21.40
2009,08,05,16,50,21.40
2009,08,05,16,51,21.30
2009,08,05,16,52,21.20
2009,08,05,16,53,21.10
2009,08,05,16,54,21.00
2009,08,05,16,55,20.90
2009,08,05,16,56,20.80
2009,08,05,16,57,20.80
2009,08,05,16,58,20.80
2009,08,05,16,59,20.80
2009,08,05,17,00,20.70
2009,08,05,17,01,20.60
2009,08,05,17,02,20.60
2009,08,05,17,03,20.50
2009,08,05,17,04,20.40
2009,08,05,17,05,20.40
2009,08,05,17,06,20.40
2009,08,05,17,07,20.40
2009,08,05,17,08,20.40
2009,08,05,17,09,20.40
2009,08,05,17,10,20.40
2009,08,05,17,11,20.50
2009,08,05,17,12,20.60
2009,08,05,17,13,20.60
2009,08,05,17,14,20.70
2009,08,05,17,15,20.70
2009,08,05,17,16,20.60
2009,08,05,17,17,20.40
2009,08,05,17,18,20.40
2009,08,05,17,19,20.30